Vineland (AU8), Ontario

12:13 AM EDT on August 19, 2017 (GMT -0400)
Vineland (AU8)

Weather History for CXVN - September, 2012

Change the Weather History Date:

Saturday, September 1, 2012

  Actual Average (CYSN) Record (CYSN)
Temperature  
Mean Temperature 71 °F -  
Max Temperature 76 °F 75 °F 87 °F (2010)
Min Temperature 66 °F 59 °F 51 °F (1999)
Cooling Degree Days 6    
Growing Degree Days 21 (Base 50)    
Moisture  
Dew Point 61 °F    
Average Humidity 68    
Maximum Humidity 81    
Minimum Humidity 49    
Precipitation  
Precipitation 0.00 in - - ()
Sea Level Pressure  
Sea Level Pressure 30.04 in    
Wind  
Wind Speed 5 mph ()    
Max Wind Speed 9 mph    
Max Gust Speed -    
Averages and records for this station are not official NWS values.
T = Trace of Precipitation, MM = Missing Value Source: Averaged Metar Reports

Daily Weather History Graph

Daily Weather History Graph

Search for Another Location

Airport or City:

Trip Planner

Search our weather history database for the weather conditions in past years. The results will help you decide how hot, cold, wet, or windy it might be!

Date:

Astronomy

Sep. 01, 2012 Rise Set
Actual Time 6:42 AM EDT 7:51 PM EDT
Civil Twilight 6:13 AM EDT 8:20 PM EDT
Nautical Twilight 5:37 AM EDT 8:55 PM EDT
Astronomical Twilight 5:00 AM EDT 9:32 PM EDT
Moon 8:03 PM EDT (9/1) 7:51 AM EDT (9/1)
Length of Visible Light 14h 07m
Length of Day
13h 09m
Full, 99% of the Moon is Illuminated
Sep 1
Full
Sep 8
Last Quarter
Sep 15
New
Sep 22
First Quarter
Sep 29
Full

Hourly Weather History & Observations

Time (EDT) Temp. Dew Point Humidity Pressure Visibility Wind Dir Wind Speed Gust Speed Precip Events Conditions
12:00 AM 75.0 °F 54.5 °F 49% 29.97 in - NNW 8.1 mph - N/A   Unknown
1:00 AM 73.0 °F 56.3 °F 56% 29.98 in - NW 4.6 mph - N/A   Unknown
2:00 AM 72 °F 58 °F 52% 29.98 in - NW 4.6 mph - -  
2:00 AM 72.0 °F 58.1 °F 62% 29.98 in - NW 4.6 mph - N/A   Unknown
3:00 AM 69.4 °F 58.1 °F 67% 29.99 in - WNW 3.5 mph - N/A   Unknown
4:00 AM 67.1 °F 59.2 °F 76% 30.00 in - WNW 3.5 mph - N/A   Unknown
5:00 AM 68.9 °F 61.3 °F 77% 30.02 in - NNW 4.6 mph - N/A   Unknown
6:00 AM 68.4 °F 56.8 °F 67% 30.04 in - NNW 5.8 mph - N/A   Unknown
7:00 AM 67.5 °F 57.4 °F 70% 30.06 in - NNW 5.8 mph - N/A   Unknown
8:00 AM 69 °F 59 °F 63% 30.07 in - North 3.5 mph - -  
8:00 AM 69.3 °F 59.2 °F 70% 30.07 in - North 3.5 mph - N/A   Unknown
9:00 AM 71.2 °F 61.2 °F 70% 30.08 in - North 3.5 mph - N/A   Unknown
10:00 AM 73.0 °F 62.6 °F 70% 30.09 in - NE 5.8 mph - N/A   Unknown
11:00 AM 74.7 °F 64.4 °F 70% 30.08 in - NE 6.9 mph - N/A   Unknown
12:00 PM 74.5 °F 64.8 °F 72% 30.09 in - NE 6.9 mph - N/A   Unknown
1:00 PM 75.0 °F 63.3 °F 67% 30.08 in - ENE 9.2 mph - N/A   Unknown
2:00 PM 76 °F 63 °F 56% 30.08 in - ENE 9.2 mph - -  
2:00 PM 75.6 °F 63.3 °F 66% 30.08 in - ENE 9.2 mph - N/A   Unknown
3:00 PM 75.0 °F 64.9 °F 71% 30.06 in - ENE 6.9 mph - N/A   Unknown
4:00 PM 75.4 °F 65.7 °F 72% 30.06 in - NE 5.8 mph - N/A   Unknown
5:00 PM 74.3 °F 64.8 °F 72% 30.04 in - East 4.6 mph - N/A   Unknown
6:00 PM 74.7 °F 64.8 °F 71% 30.03 in - East 3.5 mph - N/A   Unknown
7:00 PM 73.0 °F 63.7 °F 72% 30.02 in - ENE 1.2 mph - N/A   Unknown
8:00 PM 69 °F 60 °F 66% 30.03 in - SE 1.2 mph - -  
8:00 PM 68.7 °F 60.3 °F 74% 30.03 in - SE 1.2 mph - N/A   Unknown
9:00 PM 66.2 °F 60.1 °F 81% 30.04 in - SE 2.3 mph - N/A   Unknown
10:00 PM 66.0 °F 55.9 °F 70% 30.04 in - South 2.3 mph - N/A   Unknown
11:00 PM 66.9 °F 53.6 °F 62% 30.03 in - SSE 3.5 mph - N/A   Unknown